GFSGBSN_850_thetae_273.txt.gz
Theta_e
316 316 316 317 317 317 318 317 316 315 315 315 317 317 318 317 317 318 316 315 316 316 315 315 314 314 316 316 315 315 314 317 317 320 322 322 323 317 313 312 311 307 306 306 306 305 303
320 317 316 316 317 317 317 318 316 316 315 315 315 317 317 317 317 318 317 315 315 316 315 315 314 314 316 315 315 314 314 316 316 317 319 321 322 318 313 309 309 307 305 303 304 303 302
324 322 318 316 317 317 317 317 317 316 316 315 315 316 317 317 317 318 318 316 315 316 316 315 314 313 315 315 314 314 314 315 316 317 319 320 319 317 312 307 306 306 304 303 303 303 302
325 324 323 318 317 317 317 316 317 317 316 316 315 315 317 318 317 317 318 316 315 315 316 315 314 313 315 314 314 314 314 313 315 316 316 316 316 314 311 308 307 305 305 307 304 303 302
326 325 325 324 319 317 317 317 316 317 316 315 316 315 315 318 318 318 318 317 314 315 315 313 314 314 314 314 314 313 314 314 314 315 315 315 315 310 309 307 308 307 310 309 306 303 302
327 326 326 325 324 319 317 318 316 316 317 316 315 316 316 316 318 318 318 316 314 314 315 315 314 313 313 314 314 313 313 314 314 314 314 314 313 304 302 307 307 310 309 309 309 304 302
326 326 325 325 325 323 318 317 318 316 316 316 316 316 315 315 318 318 318 315 319 316 315 315 315 314 314 314 314 313 313 313 314 314 312 311 310 310 306 306 307 308 308 309 308 305 303
322 324 324 325 325 324 323 318 318 317 315 316 316 316 316 316 317 318 317 318 318 317 315 315 314 314 314 313 313 313 313 313 314 313 311 309 311 308 307 307 306 308 308 306 306 305 304
320 322 321 324 324 325 324 323 318 318 316 316 316 316 316 316 317 317 317 317 317 316 314 314 314 314 313 313 313 313 313 313 311 310 309 311 310 308 308 306 306 305 306 304 304 304 304
318 320 322 324 323 325 324 324 322 318 318 315 316 316 316 316 317 318 318 318 316 315 309 312 313 314 313 313 312 312 313 314 311 308 307 307 307 307 308 307 304 306 304 305 306 303 303
314 318 319 321 323 325 325 324 324 320 319 316 315 316 316 315 317 319 318 318 314 318 313 313 313 313 313 313 312 312 312 314 311 310 309 309 308 307 308 307 304 305 304 306 306 305 305
311 311 315 317 319 321 323 324 324 324 319 319 315 316 316 315 316 318 318 316 316 312 313 314 312 312 313 312 312 312 312 312 310 308 305 306 306 304 304 304 304 303 305 305 304 303 307
305 310 311 314 316 318 321 323 324 324 324 319 317 315 316 315 316 317 318 317 311 313 314 314 312 312 312 312 311 311 311 310 309 311 311 308 307 305 304 305 304 303 303 306 307 306 308
299 303 312 312 315 317 319 321 324 323 323 324 319 315 316 316 315 318 317 315 315 313 315 314 313 312 313 311 311 311 310 310 308 310 308 311 311 306 302 303 304 304 303 305 310 307 304
297 298 302 311 315 316 318 320 321 322 322 323 323 316 316 315 315 316 316 313 313 316 316 314 314 314 314 313 312 311 309 308 307 306 310 311 312 303 302 301 302 304 304 301 301 303 305
296 297 298 302 312 315 316 318 320 322 322 323 322 316 315 315 314 315 312 312 313 315 315 314 315 313 313 313 313 310 309 309 309 307 307 309 310 304 303 303 301 303 301 305 302 307 309
295 296 297 298 302 312 315 316 318 320 322 322 320 315 315 315 315 316 312 311 314 316 316 315 314 314 313 313 311 310 310 309 308 306 306 306 307 306 305 304 303 301 301 300 300 301 304
295 296 296 297 298 303 311 313 318 319 322 322 315 312 315 315 313 309 312 313 316 316 315 314 314 315 313 311 311 311 311 310 307 306 306 306 304 307 307 302 301 302 303 301 305 304 297
295 295 295 295 297 299 306 313 317 319 321 319 314 313 314 314 311 309 311 314 316 315 314 314 314 314 314 312 315 312 310 306 307 306 306 304 305 306 307 305 303 303 301 300 299 299 300
295 294 294 294 295 297 300 309 316 317 319 320 313 311 313 313 312 310 313 314 315 315 315 314 314 314 314 314 312 312 309 305 305 306 308 305 304 306 307 307 305 304 302 301 301 298 300
295 294 294 295 295 295 297 301 311 316 317 321 313 311 312 309 310 311 310 313 314 315 313 313 313 313 313 313 313 313 307 304 304 307 304 303 305 305 306 307 306 307 304 300 300 301 305
296 296 294 298 299 297 296 298 305 313 317 320 314 312 313 311 313 309 310 312 315 315 312 312 312 312 311 311 312 313 307 305 306 303 302 300 305 306 308 305 305 306 304 301 300 300 300
297 296 295 296 298 298 298 297 300 310 315 318 316 313 312 310 310 310 310 311 313 314 313 312 311 311 311 311 312 311 309 307 306 302 301 302 303 303 307 306 305 307 303 303 299 298 301
297 296 295 294 295 295 295 297 298 307 313 317 318 314 312 309 309 309 312 312 312 313 314 309 310 310 308 310 309 307 305 303 303 301 302 301 303 301 303 306 310 309 302 302 303 302 299
299 296 295 295 294 293 293 295 297 304 311 315 316 315 313 309 310 311 312 312 310 308 308 307 307 308 308 308 305 306 305 306 303 299 301 301 302 300 306 305 307 307 300 302 303 307 303
301 299 296 295 294 294 293 294 296 299 307 312 314 315 313 312 312 314 314 314 311 306 304 305 305 305 306 306 305 309 311 309 306 303 301 301 299 302 299 305 310 307 305 303 304 307 305
301 300 298 296 294 295 297 297 296 297 301 309 312 314 314 312 313 312 311 311 310 307 304 302 304 305 307 303 307 306 310 305 307 304 301 300 297 302 301 302 305 304 303 304 309 308 306
301 300 299 297 294 295 296 297 296 296 298 305 309 312 314 313 314 314 313 313 312 307 306 304 304 304 302 304 307 308 309 307 305 303 301 304 302 301 300 304 309 303 302 306 308 309 308
301 300 300 297 295 294 295 297 296 295 296 298 306 309 311 312 313 314 314 314 311 309 307 304 305 304 306 303 304 306 310 304 306 309 298 304 305 305 305 307 306 305 307 309 308 309 308

GFSGBSN_850_thetae_276.txt.gz
Theta_e
318 315 315 316 316 316 317 317 316 316 315 315 316 317 317 317 317 317 317 316 315 316 316 314 314 314 316 316 315 314 314 315 316 318 321 322 322 317 312 310 310 306 305 305 304 304 303
323 320 316 315 316 316 316 316 317 316 316 315 315 316 317 317 317 317 317 316 315 315 316 315 314 314 315 314 315 314 314 315 316 317 319 320 321 318 311 307 307 305 303 303 303 303 302
325 324 322 317 316 316 316 316 316 317 315 316 315 315 317 317 317 317 318 317 315 315 316 315 315 313 315 315 314 314 314 315 316 317 319 319 318 316 311 305 305 305 304 303 302 302 302
326 325 325 323 318 316 316 316 316 316 317 315 316 315 315 317 318 317 318 318 315 315 316 315 314 313 314 314 314 314 313 314 315 315 316 316 316 313 309 307 306 305 304 307 304 302 301
325 326 325 325 324 319 316 317 316 316 316 316 315 316 315 316 318 318 318 318 315 314 315 314 313 314 314 314 314 313 314 313 314 315 314 314 314 309 308 307 308 305 309 308 307 302 301
325 326 326 325 324 323 320 317 317 316 316 316 316 316 315 315 317 318 318 318 315 314 314 314 314 313 313 314 313 313 313 313 314 314 314 315 312 304 303 305 307 308 309 307 309 304 301
323 324 326 325 325 324 323 320 317 317 316 316 316 316 316 315 316 318 318 316 317 316 315 315 315 313 314 313 313 313 313 313 313 314 311 310 310 310 307 306 306 307 307 307 307 304 302
320 322 323 324 324 324 324 323 319 318 317 315 316 316 316 315 315 318 317 318 317 316 315 315 314 314 314 313 313 313 313 313 313 312 311 309 311 307 305 306 306 307 308 306 305 304 302
317 318 320 320 322 324 324 324 324 319 318 316 315 316 316 315 316 317 316 317 317 316 314 314 313 313 313 313 313 313 313 313 311 310 309 310 309 307 308 305 306 305 306 304 304 303 303
314 316 317 317 321 323 323 324 324 323 318 318 315 316 316 315 316 317 318 317 316 314 309 311 312 313 313 313 312 311 313 313 310 308 307 308 306 307 307 307 304 305 304 305 305 303 305
310 313 317 319 321 322 323 324 324 324 322 318 317 315 316 315 316 318 318 317 314 317 312 312 312 312 313 313 312 311 312 313 310 309 309 309 307 306 307 306 304 304 304 305 305 303 304
307 310 310 314 318 319 320 323 324 324 324 320 318 315 316 315 315 318 318 316 316 310 313 313 312 311 312 312 312 311 311 312 309 307 305 306 305 304 304 303 303 303 305 304 303 302 306
300 303 308 310 313 315 318 319 322 323 324 324 320 317 315 315 315 317 317 317 310 311 313 314 312 311 311 311 311 311 310 309 308 310 309 307 306 304 303 304 303 303 302 305 307 306 307
297 297 301 308 311 314 315 318 319 322 324 323 323 320 315 315 315 317 317 313 313 312 314 313 312 311 312 311 311 310 310 309 307 308 307 310 310 305 302 303 304 303 303 305 310 307 304
296 297 297 302 310 314 316 317 318 320 323 323 321 323 316 315 315 315 316 312 311 313 315 313 313 313 312 312 311 310 309 307 306 306 309 309 311 302 301 301 302 303 304 301 301 302 304
296 296 297 297 302 311 315 316 316 319 321 322 322 322 316 315 314 315 310 312 312 314 314 313 314 313 313 312 312 310 309 308 309 306 307 308 309 304 302 302 300 303 300 304 302 307 309
296 296 296 296 297 302 311 314 315 316 320 321 322 318 315 315 313 315 312 310 312 315 315 314 313 314 312 312 311 310 310 309 307 305 306 306 306 305 304 303 302 300 301 299 299 301 305
296 296 296 296 296 297 302 311 313 315 317 321 319 313 315 315 313 308 310 311 314 315 314 314 313 313 312 311 310 310 310 308 307 305 306 305 303 306 306 301 301 301 302 300 305 303 297
295 295 295 295 295 297 298 306 312 315 320 320 315 314 314 314 311 309 310 313 315 315 314 313 314 313 313 312 314 310 310 306 306 305 305 304 305 305 306 304 302 302 300 299 299 298 299
295 295 295 295 295 295 297 300 311 315 318 320 314 311 313 313 311 309 312 313 314 314 315 313 313 313 313 313 311 312 310 305 305 306 308 305 302 305 308 307 304 304 301 300 301 299 301
295 295 295 295 295 295 295 298 306 314 317 319 314 310 311 309 309 309 309 312 313 314 312 313 312 312 313 313 313 312 307 304 304 308 304 303 306 304 304 305 305 306 304 300 300 301 306
296 296 296 295 295 296 296 296 300 311 316 318 314 312 312 310 311 308 309 311 313 313 311 312 311 312 310 311 311 312 308 305 307 303 303 300 305 305 307 305 304 305 304 301 300 300 299
296 296 296 296 295 297 298 297 297 305 314 317 317 313 312 309 308 308 308 310 311 313 313 312 310 311 311 310 311 311 309 308 306 303 301 302 303 303 307 305 305 307 304 302 300 298 302
300 297 297 296 295 296 296 295 296 300 311 315 316 315 312 309 308 308 311 310 311 311 313 309 309 310 309 309 309 307 305 303 303 300 302 300 302 301 304 305 310 309 302 302 303 302 299
302 300 297 296 295 295 295 294 296 297 306 313 316 315 313 306 309 310 311 311 308 308 308 308 307 307 307 307 305 306 306 307 302 298 301 301 302 301 307 305 307 310 301 302 303 306 302
303 302 300 296 295 295 294 293 293 296 300 310 314 314 313 313 311 314 312 312 311 309 307 305 305 306 305 304 304 309 311 310 306 302 301 300 299 302 300 306 311 309 305 303 302 306 305
303 302 301 300 296 295 294 294 294 295 298 306 312 314 313 312 314 313 312 311 312 308 306 302 304 303 306 299 304 305 310 306 308 305 302 302 298 302 302 304 305 305 303 303 309 309 305
303 303 302 300 299 295 296 297 297 296 296 300 309 312 313 313 314 313 311 310 308 308 307 303 304 303 300 302 304 306 306 305 305 303 302 304 305 302 300 303 309 303 302 306 307 308 307
303 303 302 301 299 298 297 298 297 296 296 297 304 309 311 312 312 313 313 313 311 311 308 304 306 304 304 302 301 303 307 302 305 309 298 305 306 306 306 307 306 304 307 309 307 308 309

GFSGBSN_850_thetae_279.txt.gz
Theta_e
323 320 316 315 316 316 316 316 317 315 315 315 314 316 317 317 317 317 317 316 315 315 316 315 315 314 315 316 315 314 314 315 315 317 321 322 322 318 314 310 309 307 305 304 303 304 303
325 324 322 318 316 316 316 316 316 316 315 315 315 314 316 317 317 317 317 317 315 315 316 315 315 314 315 314 314 314 314 315 316 316 318 320 321 318 310 306 308 304 303 302 303 302 302
326 325 324 323 320 316 316 316 316 316 316 315 315 315 315 317 317 317 317 317 317 315 316 315 315 314 314 314 314 314 313 315 316 317 318 319 318 316 310 305 305 305 306 304 302 302 302
323 325 326 325 324 321 316 316 316 316 316 316 315 315 315 315 317 317 317 317 317 315 315 315 314 313 314 314 313 313 313 314 315 316 318 316 315 313 308 306 306 306 306 310 304 302 300
321 323 325 325 325 324 322 317 316 316 315 316 316 315 315 315 315 317 317 318 318 314 314 314 313 313 313 313 313 313 313 313 314 314 314 314 314 309 307 309 309 308 312 310 309 302 302
321 323 325 325 325 325 324 323 317 316 316 315 316 316 315 315 315 317 318 318 316 314 314 314 314 313 313 313 313 313 313 313 313 314 314 314 311 308 307 308 311 308 310 308 309 305 302
320 322 322 323 325 325 324 324 323 317 317 316 315 316 316 316 315 316 318 317 316 316 315 314 314 313 313 313 313 313 313 313 313 314 312 310 312 312 308 306 306 307 307 307 307 304 303
317 318 320 322 322 325 324 324 324 323 317 317 315 315 316 316 315 316 317 317 317 316 316 315 314 314 313 313 313 313 312 312 313 312 310 311 312 307 304 305 306 307 308 307 305 303 303
314 315 317 318 319 320 323 323 324 324 322 317 317 315 316 315 315 317 316 317 317 316 313 313 313 313 313 313 312 312 313 312 311 310 309 311 309 306 307 305 306 305 306 305 304 303 303
313 313 315 314 315 317 320 323 323 324 323 320 317 315 315 315 316 317 317 317 316 314 308 311 312 312 312 312 311 311 312 312 309 309 307 308 305 307 306 307 305 306 303 304 305 306 309
306 308 310 314 318 320 322 322 322 324 324 323 318 317 315 315 315 317 318 317 314 316 313 312 312 312 312 312 311 311 312 313 309 307 309 309 306 306 307 306 303 304 304 305 305 305 306
299 301 306 308 311 317 319 320 321 323 324 323 322 318 315 315 314 317 318 316 316 310 312 313 311 311 312 311 311 311 311 312 309 307 305 305 304 303 303 302 302 302 304 304 303 305 310
298 298 299 303 308 309 313 317 319 320 323 323 323 321 317 315 315 316 317 316 310 311 312 313 312 311 311 311 310 310 310 309 309 310 309 307 306 303 303 304 303 303 304 311 311 311 311
297 297 297 298 303 309 309 311 315 318 320 323 323 322 321 315 315 316 317 311 312 311 311 312 311 310 312 310 310 310 309 309 307 308 307 310 310 305 301 302 304 303 305 311 311 310 309
297 297 297 297 298 306 312 314 313 314 319 322 323 321 322 315 315 314 316 311 311 310 314 312 312 312 311 311 311 310 309 308 307 307 309 309 310 302 300 300 302 303 306 301 304 303 307
298 298 297 297 297 299 307 314 314 314 317 321 322 322 321 316 315 314 311 312 310 311 312 312 314 312 312 312 312 310 309 308 309 305 306 307 309 303 301 301 300 302 300 306 305 311 311
299 298 298 297 297 297 300 309 313 314 315 320 321 320 316 314 313 315 312 310 311 313 314 313 312 313 311 312 310 310 310 308 307 305 306 305 307 304 303 303 303 301 302 300 302 304 311
297 298 297 297 297 297 297 302 310 313 314 318 321 315 315 314 312 307 310 310 313 314 314 313 312 312 311 310 310 309 310 308 306 305 307 304 304 306 306 301 300 300 301 302 312 306 300
298 299 297 296 296 296 296 298 305 311 314 319 317 315 314 314 311 308 309 311 313 314 313 313 313 312 311 311 314 310 309 306 306 304 305 305 306 308 306 304 302 302 301 300 300 301 303
298 298 297 296 296 296 295 297 301 311 314 319 314 312 312 313 311 308 311 312 313 314 314 313 312 312 312 312 309 311 310 305 305 306 307 305 303 307 311 309 305 304 301 300 303 307 307
298 297 297 296 296 296 295 296 299 310 314 318 314 310 310 309 308 308 309 311 312 313 312 312 312 312 312 312 312 312 308 304 304 309 304 304 307 303 304 304 304 306 304 301 302 304 311
299 297 296 296 296 296 295 295 297 306 314 317 314 311 310 309 309 308 309 310 311 312 311 311 312 311 310 312 312 312 307 306 307 303 303 301 307 304 307 304 304 306 305 302 302 301 301
302 299 296 296 296 296 296 297 295 300 311 316 316 313 311 308 306 307 308 309 310 312 313 311 310 310 310 309 310 310 309 307 307 304 302 303 304 305 308 304 305 308 305 304 301 299 303
303 301 298 296 296 296 295 297 296 297 305 314 315 315 313 308 307 308 310 309 310 310 312 308 309 309 308 308 308 306 305 303 303 300 301 301 303 303 308 306 311 311 302 303 304 303 300
305 302 301 297 297 296 295 296 295 296 299 310 314 314 313 306 309 309 310 311 307 307 308 309 308 308 307 307 305 306 306 307 301 300 301 301 303 304 310 307 308 312 302 303 305 308 303
307 303 303 302 298 297 296 295 295 294 297 302 312 314 313 313 311 313 311 311 309 309 308 305 305 305 305 304 304 309 311 309 306 302 301 300 301 306 302 309 312 310 304 303 303 309 305
308 305 304 303 301 298 296 295 294 293 295 298 307 312 313 313 314 313 312 311 312 309 308 302 304 303 305 300 304 307 310 306 308 306 303 303 302 306 304 307 307 306 302 303 310 313 306
309 306 304 304 303 300 296 295 295 294 295 297 302 309 312 312 313 313 314 312 310 309 309 305 304 303 301 303 304 305 306 306 305 303 303 306 306 306 302 305 311 303 302 307 308 307 308
310 307 305 304 303 301 298 297 299 297 296 296 298 307 310 312 312 313 313 311 311 311 309 304 306 304 304 302 301 302 307 302 305 310 298 306 308 308 308 308 306 305 307 309 308 308 308

GFSGBSN_850_thetae_285.txt.gz
Theta_e
325 324 323 319 315 315 315 315 315 316 316 315 315 315 315 316 317 317 317 317 316 315 316 316 315 314 316 318 317 315 314 315 315 317 323 324 324 324 324 320 318 319 314 312 311 311 312
326 325 325 324 323 317 315 315 315 315 316 316 315 315 315 315 317 317 317 317 317 316 315 316 315 314 316 319 315 314 314 315 316 319 320 322 323 322 320 317 318 315 314 312 311 311 310
322 324 324 325 325 324 319 315 315 315 315 316 316 315 315 315 315 317 317 317 317 317 315 316 315 315 315 316 314 314 314 315 316 319 319 319 319 320 318 315 313 314 315 313 312 312 311
320 321 321 323 325 325 324 322 316 315 315 315 315 316 315 316 315 316 318 318 318 317 315 316 315 314 316 314 313 313 315 315 315 318 318 318 318 316 316 313 314 316 317 320 314 312 309
315 319 320 321 323 325 325 324 323 317 315 315 315 315 316 316 316 315 317 318 318 318 315 315 314 314 316 313 314 313 314 315 315 315 315 314 315 315 314 319 320 318 320 319 317 312 312
320 321 322 322 322 324 325 325 325 323 318 315 315 315 315 316 316 315 318 318 318 316 314 315 315 315 313 315 313 313 313 315 316 315 316 317 318 320 320 320 320 318 318 317 317 314 311
318 320 320 323 322 322 322 325 324 324 324 318 315 315 315 316 316 316 318 318 318 318 316 318 316 315 313 313 313 313 313 314 315 316 319 318 320 322 319 317 315 315 316 316 316 313 312
315 317 318 319 319 320 320 322 324 323 324 324 317 315 315 316 316 316 317 320 317 317 320 317 314 314 313 313 314 313 313 315 316 319 318 319 321 316 314 313 314 315 316 317 314 311 310
310 306 312 314 316 316 316 317 324 323 322 323 323 315 315 316 315 317 319 317 317 316 319 316 315 315 314 313 315 314 313 315 317 318 319 319 317 312 313 315 315 316 315 315 313 312 312
305 305 307 307 309 306 308 313 319 323 321 323 323 318 315 315 317 317 319 317 316 315 320 318 316 315 313 314 315 312 313 315 315 317 317 317 312 313 314 315 313 316 311 311 312 314 319
302 301 303 306 307 312 313 313 314 318 319 320 324 322 316 315 316 319 318 317 315 316 322 316 315 313 313 315 314 313 312 314 317 316 316 316 313 313 314 314 311 313 310 311 313 314 316
299 299 299 300 303 307 313 316 317 318 318 319 323 323 316 315 315 317 318 316 316 321 321 318 316 316 315 315 315 313 314 313 313 315 315 314 309 311 311 309 309 310 312 313 314 316 321
298 299 299 299 299 303 307 308 313 316 317 319 322 323 319 315 318 316 318 317 321 321 317 318 318 316 317 317 316 315 316 316 317 317 318 314 313 308 307 311 310 310 315 322 325 324 323
300 300 299 299 300 299 304 308 307 308 314 317 320 323 323 317 315 316 317 320 321 320 319 317 317 317 318 317 317 316 316 317 316 316 317 318 318 312 308 310 311 313 314 318 321 322 320
300 300 300 300 300 299 299 307 310 309 308 315 318 323 323 321 315 315 319 321 320 320 318 318 317 318 319 317 316 316 317 318 317 316 317 317 316 307 306 306 308 313 315 312 316 316 316
303 301 300 300 300 300 299 301 308 311 310 314 319 323 322 322 315 315 320 321 320 317 317 318 320 319 320 319 317 318 319 316 316 313 313 316 316 309 307 306 307 309 309 316 317 325 322
304 304 303 302 300 299 299 299 304 311 312 316 321 323 320 321 315 317 320 320 320 316 317 319 320 320 320 320 319 319 319 315 313 312 312 315 315 312 309 310 314 310 312 311 313 315 320
306 304 303 303 302 301 300 299 300 308 311 316 321 321 319 318 318 318 320 319 317 318 316 318 318 319 319 319 320 320 320 318 312 312 314 314 316 316 314 308 307 308 312 313 317 322 315
308 307 306 304 302 301 300 301 300 304 311 317 320 321 317 315 322 321 319 317 317 318 318 318 318 319 319 319 320 320 318 311 310 312 314 313 316 317 314 310 308 310 311 311 313 313 318
311 308 307 306 304 301 301 301 301 301 310 315 319 320 317 315 319 320 321 319 318 316 317 318 318 318 318 319 319 320 318 312 309 310 307 310 316 317 319 318 316 313 311 309 312 317 320
316 313 308 306 305 303 301 301 301 299 308 314 317 319 318 320 318 318 319 319 320 319 316 317 317 318 318 319 319 318 319 313 309 310 310 313 317 318 317 315 312 313 314 311 311 313 316
322 316 313 308 305 303 302 302 301 299 307 316 319 317 315 317 315 318 318 318 319 319 318 317 317 318 318 318 319 319 319 318 318 312 312 312 316 315 316 316 314 312 313 313 312 311 312
323 321 316 313 306 303 302 302 301 299 304 315 317 315 315 317 316 317 319 318 318 318 317 317 317 318 318 318 317 317 316 316 317 316 315 315 316 316 318 314 313 316 315 314 314 313 313
321 321 319 316 311 306 302 302 300 299 300 309 316 317 316 319 317 317 316 316 317 317 318 316 314 316 314 312 311 312 312 312 313 313 314 315 316 317 319 318 319 318 311 311 315 314 313
319 319 319 317 315 309 304 301 300 298 298 305 311 315 316 319 317 316 316 315 315 315 316 316 311 309 310 311 316 316 316 314 313 311 310 312 316 324 320 319 319 318 314 310 312 315 313
319 318 317 317 315 312 311 302 301 298 296 299 308 314 315 315 317 315 315 315 316 316 315 313 308 307 308 314 318 321 321 319 318 310 307 309 311 319 318 323 319 317 309 308 309 317 312
319 317 316 316 316 313 314 303 298 298 297 296 300 310 314 315 314 314 315 316 315 316 316 312 307 307 308 317 321 320 320 318 319 316 312 311 313 318 317 322 318 318 308 307 316 318 311
314 315 316 316 316 313 311 308 298 297 296 296 297 302 313 313 314 314 314 314 315 315 317 310 310 308 309 318 319 319 319 319 318 317 314 315 318 317 317 322 318 310 307 313 315 311 310
315 314 316 316 316 314 311 309 302 297 296 296 296 297 307 312 312 312 313 313 313 313 314 311 315 313 313 315 317 317 318 317 318 318 315 317 317 320 319 318 315 309 312 311 308 309 310

GFSGBSN_850_thetae_288.txt.gz
Theta_e
325 325 324 322 318 315 315 315 315 315 316 315 315 315 315 316 317 317 317 317 317 316 316 316 315 314 316 319 316 315 314 315 316 318 324 324 324 324 325 320 319 319 314 313 312 313 313
323 325 325 325 324 321 316 315 315 315 315 316 316 315 315 315 316 317 317 317 317 317 316 316 315 314 316 319 315 315 314 315 316 319 320 322 323 322 320 317 318 316 314 313 312 312 312
321 322 324 324 325 324 323 318 315 315 315 315 316 316 315 315 315 316 318 317 317 317 316 316 316 315 316 315 315 315 314 314 316 319 320 320 320 320 319 316 315 314 314 313 313 312 312
318 319 320 320 323 325 325 324 321 315 315 315 315 315 316 316 316 315 317 318 318 318 316 316 316 314 316 314 314 314 316 315 315 318 318 318 319 318 318 314 315 316 317 319 314 313 310
314 316 319 319 319 321 324 325 324 322 316 315 315 315 315 316 316 315 317 318 318 318 315 316 316 315 315 314 314 314 314 316 315 315 315 315 317 316 315 317 318 317 319 320 315 313 311
321 320 321 321 321 320 322 324 325 324 323 318 315 315 315 316 316 315 317 318 318 317 315 316 316 315 314 315 314 313 314 315 316 316 317 317 318 319 318 319 319 317 316 317 317 313 312
319 320 321 322 321 321 320 321 324 324 324 323 318 315 315 315 316 316 318 319 319 318 316 318 317 315 314 314 314 313 314 314 315 316 318 319 318 321 317 316 315 315 315 316 316 313 312
317 317 318 319 319 319 319 318 321 324 324 324 323 316 315 315 316 316 319 321 319 319 320 318 316 315 314 314 315 314 313 315 316 318 319 319 319 315 315 315 315 315 315 316 314 312 311
312 312 306 309 313 315 316 316 316 322 323 321 323 321 315 315 316 318 320 318 317 317 319 317 317 316 315 314 316 314 314 315 316 318 319 318 316 313 314 316 316 316 316 313 312 313 311
307 307 305 307 308 309 307 308 312 320 323 321 321 323 315 315 319 317 320 317 316 315 320 318 316 315 314 315 315 313 313 315 316 317 317 316 313 314 315 316 314 315 311 312 313 314 316
304 303 301 302 305 307 313 312 312 314 320 320 319 323 316 315 319 320 321 317 316 317 324 317 316 315 315 316 314 314 313 314 316 317 315 315 314 314 315 312 311 313 311 311 313 313 313
301 301 301 301 301 304 307 314 315 315 316 318 319 323 319 317 316 317 317 317 316 322 322 317 316 316 315 315 315 314 314 314 314 316 315 313 310 311 311 310 309 310 311 313 314 313 318
301 301 301 302 301 300 304 307 310 314 315 317 319 323 322 315 320 317 318 318 322 321 318 318 318 316 317 317 317 315 316 315 316 317 317 315 313 308 308 310 310 310 313 320 323 319 322
302 302 302 302 302 301 301 304 306 306 309 315 317 321 323 318 316 315 317 320 323 321 320 319 318 318 318 318 317 317 317 317 317 317 316 318 317 311 309 309 310 312 313 316 319 319 317
303 303 303 303 303 302 302 302 306 308 307 310 315 319 323 321 316 315 319 321 322 321 319 319 318 319 319 318 316 317 317 317 317 315 317 318 315 307 307 306 307 312 313 311 313 316 315
304 305 304 304 304 303 303 303 303 309 308 310 316 324 325 322 316 315 319 320 321 319 318 319 320 320 321 319 317 318 319 317 317 313 314 316 315 310 306 306 307 307 308 313 313 323 322
305 305 305 305 304 304 303 303 302 308 310 312 316 323 322 322 316 316 319 320 320 317 318 319 321 321 320 320 319 320 320 314 315 313 313 314 315 311 309 309 312 308 310 309 311 313 317
307 307 307 305 305 304 304 303 302 304 309 315 322 321 320 321 316 317 318 319 318 319 317 318 318 320 320 320 320 320 320 317 313 313 314 314 315 315 313 307 307 308 310 312 317 319 312
308 307 308 307 306 305 304 302 302 302 310 317 321 320 319 318 322 321 320 319 318 318 319 318 319 319 319 319 320 320 319 312 311 313 315 313 313 316 313 310 308 309 310 309 312 312 315
313 310 309 308 308 306 305 303 302 301 309 316 319 321 317 315 318 319 321 320 319 317 317 318 318 318 318 318 318 320 319 312 311 311 310 311 315 316 318 318 314 312 311 309 310 314 316
318 315 312 309 308 307 305 304 302 301 308 315 318 319 319 320 318 319 319 320 321 320 317 317 318 318 318 319 318 319 319 313 310 311 310 312 315 316 316 316 314 313 313 310 307 310 312
321 319 317 315 311 308 306 305 302 301 305 313 319 317 317 318 317 318 318 319 320 319 319 317 317 318 317 317 318 319 318 317 316 312 312 311 315 316 315 315 315 314 312 311 310 309 310
324 323 321 318 316 313 308 306 304 301 303 313 316 318 317 318 316 318 319 318 318 318 318 318 318 317 318 318 316 315 316 316 316 314 313 313 314 315 317 316 314 313 312 312 312 311 311
324 324 324 323 321 316 312 307 305 302 300 312 316 317 315 320 319 317 316 317 318 318 318 318 317 316 314 314 314 314 314 313 314 315 315 315 314 316 317 316 317 316 312 313 313 313 311
323 324 323 323 322 320 316 308 305 303 300 304 313 316 317 320 317 317 316 316 316 315 316 317 314 312 312 312 316 316 315 314 313 313 312 312 315 317 318 316 316 317 315 310 311 314 313
320 321 320 320 321 320 319 315 307 304 299 300 305 314 316 316 317 316 316 316 316 315 315 316 311 309 310 314 317 319 320 318 317 310 308 309 310 314 315 319 319 316 310 310 310 312 311
319 320 320 320 319 318 317 318 311 303 300 297 300 307 314 316 314 315 315 315 315 315 316 315 307 308 309 316 319 319 318 318 318 314 309 308 309 312 314 317 318 316 308 309 313 314 311
312 315 319 320 319 318 317 316 312 304 298 298 298 301 309 314 313 314 314 315 315 315 317 309 309 309 310 316 318 317 318 317 317 316 311 311 313 311 311 314 317 310 307 310 313 311 311
312 315 315 318 319 317 316 315 314 307 298 297 298 299 302 312 312 312 314 314 314 315 315 310 315 310 311 313 315 316 318 316 317 318 315 314 316 316 315 315 315 310 313 311 311 310 310

GFSGBSN_850_thetae_291.txt.gz
Theta_e
324 325 325 323 321 316 314 314 315 315 315 316 315 315 315 315 316 317 317 317 317 316 316 316 315 314 315 319 315 315 314 314 315 319 323 323 324 323 320 318 317 314 313 312 312 313 312
320 322 324 325 324 323 320 315 314 315 315 315 316 315 315 315 315 317 317 317 317 317 316 317 316 314 316 317 315 315 314 315 315 319 320 322 321 321 317 315 315 314 313 312 312 311 312
317 320 321 323 324 325 324 323 317 314 315 315 315 315 316 315 315 315 317 317 317 317 316 316 316 315 316 315 315 314 314 315 316 319 319 320 321 320 318 314 315 313 311 312 311 311 310
313 317 318 320 320 322 324 324 323 320 315 314 315 315 315 316 315 315 316 318 317 318 316 316 316 314 316 314 314 314 316 315 316 317 317 318 319 318 317 315 314 313 313 314 312 311 309
312 314 316 319 318 318 319 323 324 324 322 315 314 314 315 315 316 315 316 318 318 318 315 316 315 315 315 313 314 314 315 316 315 315 315 315 317 315 314 313 313 313 313 316 313 311 308
317 320 318 321 319 318 318 319 323 324 324 323 317 314 314 315 316 315 317 318 318 317 315 316 315 315 314 314 314 314 314 315 316 316 317 317 317 314 312 312 314 313 312 312 314 310 309
316 318 322 322 320 320 319 315 317 323 324 324 323 317 314 315 316 315 318 319 319 318 315 317 316 315 314 314 314 314 314 314 315 315 315 317 313 315 314 313 313 313 313 312 312 311 310
316 316 317 318 319 318 317 317 315 318 322 323 323 322 314 315 315 317 320 320 318 319 319 317 317 315 314 314 314 314 313 314 315 315 315 314 315 313 313 313 313 313 313 312 312 311 309
312 313 312 306 309 313 313 314 313 314 319 322 321 322 316 315 315 318 320 318 317 317 317 317 316 315 315 314 315 313 313 315 315 315 315 315 314 313 313 313 314 313 312 311 310 311 309
308 308 305 305 306 308 309 306 306 309 317 321 320 321 318 315 318 318 320 317 316 315 314 316 315 315 315 315 314 313 314 315 315 315 315 313 312 313 313 314 312 312 310 310 311 310 311
305 304 303 302 302 306 308 311 309 310 316 320 319 319 319 315 318 320 320 317 316 317 320 316 315 315 314 315 314 314 313 314 314 314 313 314 312 312 313 311 309 311 310 310 311 310 310
302 302 302 301 301 301 305 308 311 311 312 315 317 319 322 315 315 317 317 317 317 317 321 316 314 314 314 314 314 313 314 314 314 314 313 311 310 309 309 309 308 309 309 310 311 310 314
302 301 301 302 302 301 302 305 306 310 312 314 315 318 322 315 318 317 317 318 317 317 317 316 315 315 314 314 314 314 313 313 312 314 314 312 310 307 308 309 309 309 310 316 321 316 317
303 302 302 302 302 302 302 302 305 306 307 312 314 316 322 318 316 316 317 315 320 320 316 316 316 315 315 315 315 314 314 313 312 314 312 313 314 309 307 308 309 310 309 313 316 316 315
304 303 303 303 303 303 303 303 304 307 306 308 313 316 322 322 316 315 319 317 316 318 317 317 317 316 316 316 316 315 312 313 314 312 312 313 314 306 306 305 307 311 310 309 310 312 313
308 306 305 305 303 303 303 303 303 306 306 309 315 320 324 322 319 315 316 317 317 318 317 317 316 315 316 315 314 313 314 315 314 312 313 313 313 308 305 305 306 307 307 311 311 313 319
311 309 308 307 305 304 303 302 302 306 307 310 318 321 323 322 318 316 314 315 318 317 318 318 318 318 318 316 314 315 316 313 314 311 312 312 310 310 307 306 308 305 306 307 307 311 311
311 311 310 309 307 306 305 303 303 305 309 312 321 318 319 321 315 314 313 316 317 316 317 317 316 317 318 317 316 317 318 314 313 311 311 311 310 311 309 306 306 307 308 307 309 313 307
311 311 311 310 309 307 306 304 303 303 309 318 321 320 318 319 316 315 316 317 317 317 316 316 317 317 317 318 318 317 315 312 312 312 312 310 309 311 311 310 308 306 307 307 308 307 312
315 313 312 311 310 308 307 305 302 302 308 315 320 316 316 316 316 317 317 318 317 317 317 317 317 316 316 316 316 317 316 311 311 311 310 310 309 311 314 314 311 309 309 306 307 304 306
320 317 314 312 311 309 307 305 303 302 306 314 318 317 317 313 315 316 317 318 319 318 316 316 316 315 316 316 316 315 315 310 310 310 310 309 310 312 312 312 311 311 311 308 305 307 310
322 321 319 316 313 312 309 307 304 301 304 312 317 316 317 317 317 315 315 316 318 318 315 315 315 316 314 314 315 316 315 312 313 310 308 307 310 314 313 313 312 312 310 309 308 307 305
323 321 320 320 318 315 311 308 305 301 301 310 314 318 317 315 314 314 314 315 316 316 317 317 315 314 314 314 314 315 315 315 314 309 308 308 309 311 312 312 312 312 309 309 309 307 308
324 322 322 322 321 318 316 310 307 303 301 307 312 317 316 312 313 313 315 317 316 316 315 317 316 314 314 314 314 313 313 313 313 311 311 310 309 308 311 314 315 313 311 310 310 310 307
321 324 322 322 323 322 321 317 309 305 302 302 311 315 315 312 316 316 315 315 315 315 315 316 316 314 314 314 312 313 312 312 312 310 310 310 309 308 311 311 312 314 313 310 310 312 309
319 320 322 323 322 322 322 322 316 308 303 300 306 316 317 314 312 315 316 315 313 312 313 313 311 311 313 311 314 313 314 314 314 310 306 306 308 311 307 311 315 313 310 310 309 309 310
315 318 320 321 322 322 322 321 320 313 303 301 301 313 316 316 314 315 314 314 315 314 311 309 308 309 311 308 309 314 316 315 315 310 308 306 303 307 309 310 312 312 310 309 312 313 309
312 311 316 319 320 320 320 318 317 314 306 299 301 302 311 314 313 313 315 315 315 315 313 310 309 308 305 310 311 313 314 313 313 310 307 308 308 306 305 309 314 312 307 309 311 311 310
312 311 311 314 317 319 319 318 317 315 310 298 298 299 303 310 310 310 313 313 314 315 315 310 313 309 309 308 309 311 313 312 314 315 308 311 310 310 309 311 311 310 313 312 312 312 311